Home   Weather   Derby   Past weeks
Flag for United Kingdom

Past Weather in Derby, England, United Kingdom — Yesterday and Last 2 Weeks

Now
45 °F

Passing clouds.


Feels Like: 40 °F
Forecast: 55 / 38 °F
Wind: 9 mph from Southwest

Location: East Midlands

Current Time: Mar 19, 2019 at 6:26:19 am

Latest Report: Mar 19, 2019 at 5:50 am


Visibility: N/A

Pressure: 30.24 "Hg

Humidity: 100%

Dew Point: 45 °F

Location of DerbyLocation

Past Weather in Derby — Graph

°F

Derby Temperature Yesterday

Maximum temperature yesterday: 48 °F (at 12:20 pm)
Minimum temperature yesterday: 37 °F (at 3:20 am)
Average temperature yesterday: 44 °F

High & Low Weather Summary for the Past Weeks

 TemperatureHumidityPressure
High55 °F (Mar 6, 12:20 pm)100% (Mar 6, 12:50 am)30.24 "Hg (Mar 6, 12:50 am)
Low36 °F (Mar 5, 1:50 am)46% (Mar 11, 2:50 pm)28.97 "Hg (Mar 6, 3:20 pm)
Average44 °F82%29.60 "Hg
* Reported Mar 4 5:20 am — Mar 19 5:20 am, Derby. Weather by CustomWeather, © 2019

Note: Actual official high and low records may vary slightly from our data, if they occured in-between our weather recording intervals... More about our weather records

Advertising

Derby Weather History for the Previous 24 Hours

Scroll right to see more
 ConditionsComfort  
Time TempWeatherWind HumidityBarometerVisibility
5:20 am
Tue, Mar 19
45 °FPassing clouds.9 mph100%30.24 "HgN/A
4:50 am45 °FPassing clouds.7 mph93%30.24 "HgN/A
4:20 am45 °FPassing clouds.7 mph100%30.24 "HgN/A
3:50 am45 °FPassing clouds.5 mph100%30.24 "HgN/A
3:20 am45 °FPassing clouds.5 mph100%30.24 "HgN/A
2:50 am45 °FPassing clouds.6 mph100%30.21 "HgN/A
2:20 am45 °FPassing clouds.7 mph100%30.21 "HgN/A
1:50 am45 °FPartly cloudy.6 mph100%30.21 "HgN/A
1:20 am45 °FPartly cloudy.7 mph100%30.21 "HgN/A
12:50 am45 °FPassing clouds.7 mph100%30.21 "HgN/A
12:20 am45 °FPassing clouds.8 mph100%30.21 "HgN/A
11:50 pm
Mon, Mar 18
45 °FPartly cloudy.7 mph93%30.21 "HgN/A
11:20 pm45 °FPartly cloudy.6 mph93%30.21 "HgN/A
10:50 pm45 °FPassing clouds.7 mph93%30.21 "HgN/A
10:20 pm45 °FPassing clouds.5 mph93%30.21 "HgN/A
9:20 pm45 °FLight rain. Passing clouds.8 mph93%30.18 "HgN/A
8:50 pm45 °FPassing clouds.5 mph93%30.18 "HgN/A
8:20 pm45 °FLight rain. Passing clouds.5 mph93%30.18 "HgN/A
7:50 pm45 °FLight rain. Passing clouds.6 mph93%30.18 "Hg4 mi
7:20 pm45 °FLight rain. Passing clouds.6 mph93%30.18 "HgN/A
6:50 pm45 °FLight rain. Passing clouds.7 mph87%30.15 "HgN/A
6:20 pm46 °FPartly cloudy.6 mph82%30.15 "HgN/A
5:50 pm46 °FScattered clouds.6 mph82%30.15 "HgN/A
5:20 pm46 °FScattered clouds.9 mph76%30.15 "HgN/A
4:50 pm46 °FScattered clouds.10 mph76%30.12 "HgN/A
4:20 pm48 °FScattered clouds.10 mph71%30.12 "HgN/A
3:50 pm48 °FScattered clouds.9 mph71%30.12 "HgN/A
3:20 pm48 °FScattered clouds.10 mph71%30.12 "HgN/A
2:50 pm48 °FBroken clouds.10 mph71%30.12 "HgN/A
2:20 pm48 °FBroken clouds.12 mph66%30.12 "HgN/A
1:50 pm48 °FPartly sunny.13 mph66%30.12 "HgN/A
1:20 pm46 °FBroken clouds.9 mph71%30.12 "HgN/A
12:50 pm46 °FBroken clouds.13 mph71%30.12 "HgN/A
12:20 pm48 °FScattered clouds.12 mph71%30.12 "HgN/A
11:50 am46 °FScattered clouds.15 mph76%30.12 "HgN/A
11:20 am46 °FPartly sunny.15 mph76%30.12 "HgN/A
10:50 am46 °FBroken clouds.13 mph82%30.12 "HgN/A
10:20 am46 °FBroken clouds.15 mph76%30.09 "HgN/A
9:50 am45 °FScattered clouds.15 mph81%30.09 "HgN/A
9:20 am43 °FScattered clouds.15 mph87%30.09 "HgN/A
8:50 am43 °FScattered clouds.14 mph87%30.09 "HgN/A
8:20 am41 °FScattered clouds.15 mph93%30.07 "HgN/A
7:50 am41 °FScattered showers. Scattered clouds.13 mph93%30.07 "HgN/A
7:20 am39 °FBroken clouds.13 mph93%30.07 "HgN/A
6:50 am39 °FScattered clouds.13 mph93%30.07 "HgN/A
6:20 am37 °FScattered clouds.9 mph93%30.04 "HgN/A
Weather by CustomWeather, © 2019

See weather overview